Showing default

ORBCOMM FM 14, 25419

Orbit data source: Space-Track

ORBCOMM FM 14, 25419 is a payload satellite owned by Orbcomm (US) in LEO that was launched on Sun, 02 Aug 1998 UTC via a PEGASUS XL/HAPS launch vehicle from the Pegasus Launch, Eastern Range Air Space (ERAS). Payload-class satellites include a variety of spacecraft equipped with specific instruments for various scientific and technological missions. These include communications satellites like Starlink; space stations such as the ISS; scientific satellites like the Hubble; Earth observation satellites from companies like Planet Labs, Umbra, and HawkEye 360; GPS; miniature CubeSats for education and research; and military/defense satellites.

Loading next visibility...
Identifier
25419, 1998-046G
Orbit
LEO
Country
Flag of USUS / ORB
Related business
Manufacturer
OSC-Germantown
Mission
Non-operational Commercial Communications
Bus & Motor
MICROSTAR, Unknown motor
Mass
42 kg wet, 42 kg dry
Launch date (UTC)
1998-08-02 (28 years ago)
Launch vehicle
PEGASUS XL/HAPS
Launch site
Pegasus Launch, Eastern Range Air Space (ERAS)
Object type
Payload
Rocket body
Debris
Shape & HBR
Cyl + 2 Pan, 4.2 m
Radar Cross Section
1.484 m², Medium (>0.1 m² and < 1m²)

Expand to show TLE details & history
Last TLE update: 1 day ago

TLE from 1 day ago
0 ORBCOMM FM 14
1 25419U 98046G   26037.29911832  .00001823  00000-0  62098-3 0  9993
2 25419  44.9940 143.7789 0001025  22.8004 337.2890 14.39794718437948
Epoch: 2026-02-06T07:10Z
TLE epoch observation values (Epoch: 2026-02-06T07:10:43.822Z)
Latitude
-0.00005°
Longitude
-100.34273°
Altitude
758.5 km
Speed
7.477 km/s
True Right ascension
09h 35m 06s
True Declination
0° 00' 00"
Sunlit
Object was in full shadow at epoch
Visualization orbit readout
Latitude
Unknown
Longitude
Unknown
Altitude
Unknown
Speed
Unknown
Apparent Right ascension
Unknown
Apparent Declination
Unknown
Sunlit
N/A
Visualization observer readout
Local Sidereal Time
11:16:01
Azimuth
Unknown
Elevation
Unknown
Doppler factor
Unknown
Orbital elements
Apogee altitude
761.457 km
Perigee altitude
759.993 km
Semi-major axis
7,138.862 km
Eccentricity
0.0001
Inclination
44.994°
RAAN
143.7789°
Arg. of periapsis
22.8004°
True anomaly
337.28446°
Mean anomaly
337.289°
Eccentric anomaly
337.28673°
Mean motion
3.59832 °/min
Orbital period
100.05 mins
BSTAR
0.00062098
Loading maneuver chart data...
Computing Atmospheric mass density...

Documentation

Showing up to 5 results
|